Weather History for Alexandroupoli, Greece

Change the Weather History Date:

Tuesday, October 4, 2011

  Actual Average Record
Temperature  
Mean Temperature 62 °F -  
Max Temperature 76 °F 67 °F 81 °F (2012)
Min Temperature 49 °F 49 °F 42 °F (2013)
Degree Days  
Heating Degree Days 2    
Growing Degree Days 12 (Base 50)    
Moisture  
Dew Point 51 °F    
Average Humidity 68    
Maximum Humidity 88    
Minimum Humidity 29    
Precipitation  
Precipitation 0.00 in 0.07 in - ()
Sea Level Pressure  
Sea Level Pressure 30.15 in    
Wind  
Wind Speed 4 mph ()    
Max Wind Speed 12 mph    
Max Gust Speed -    
Visibility 6.2 miles    
Events      
Averages and records for this station are not official NWS values.
T = Trace of Precipitation, MM = Missing Value Source: Averaged Metar Reports

Daily Weather History Graph

Daily Weather History Graph

Search for Another Location

Airport:

Trip Planner

Search our weather history database for the weather conditions in past years. The results will help you decide how hot, cold, wet, or windy it might be!

Date:

Astronomy

Oct. 04, 2011 Rise Set
Actual Time 7:15 AM EEST 6:54 PM EEST
Civil Twilight 6:47 AM EEST 7:21 PM EEST
Nautical Twilight 6:16 AM EEST 7:53 PM EEST
Astronomical Twilight 5:44 AM EEST 8:25 PM EEST
Moon 2:45 PM EEST (10/4) No Moon Set
Length of Visible Light 12h 33m
Length of Day
11h 38m
First Quarter, 53% of the Moon is Illuminated
Oct 4
First Quarter
Oct 12
Full
Oct 20
Last Quarter
Oct 26
New
Nov 2
First Quarter

Hourly Weather History & Observations

Time (EEST) Temp. Dew Point Humidity Pressure Visibility Wind Dir Wind Speed Gust Speed Precip Events Conditions
12:20 AM 59.0 °F 51.8 °F 77% 30.21 in 6.2 mi NE 5.8 mph - N/A   Partly Cloudy
12:50 AM 59.0 °F 53.6 °F 82% 30.21 in 6.2 mi NNE 4.6 mph - N/A   Partly Cloudy
1:20 AM 59.0 °F 53.6 °F 82% 30.21 in 6.2 mi NNE 4.6 mph - N/A   Partly Cloudy
1:50 AM 57.2 °F 51.8 °F 82% 30.21 in 6.2 mi Calm Calm - N/A   Partly Cloudy
2:50 AM 55.4 °F 51.8 °F 88% 30.18 in 6.2 mi NE 4.6 mph - N/A   Partly Cloudy
3:00 AM 55 °F 52 °F 86% 30.21 in 6 mi NE 4.6 mph - -   Scattered Clouds
3:20 AM 55.4 °F 51.8 °F 88% 30.18 in 6.2 mi NE 5.8 mph - N/A   Partly Cloudy
3:50 AM 51.8 °F 48.2 °F 88% 30.18 in 6.2 mi Calm Calm - N/A   Partly Cloudy
4:20 AM 51.8 °F 48.2 °F 88% 30.18 in 6.2 mi Calm Calm - N/A   Partly Cloudy
4:50 AM 51.8 °F 48.2 °F 88% 30.18 in 6.2 mi Calm Calm - N/A   Partly Cloudy
5:20 AM 51.8 °F 48.2 °F 88% 30.18 in 6.2 mi Calm Calm - N/A   Partly Cloudy
5:50 AM 50.0 °F 46.4 °F 87% 30.18 in 6.2 mi Calm Calm - N/A   Partly Cloudy
6:20 AM 50.0 °F 46.4 °F 87% 30.18 in 6.2 mi Calm Calm - N/A   Partly Cloudy
6:50 AM 50.0 °F 46.4 °F 87% 30.18 in 6.2 mi Variable 3.5 mph - N/A   Partly Cloudy
7:20 AM 50.0 °F 46.4 °F 87% 30.18 in 6.2 mi Variable 3.5 mph - N/A   Partly Cloudy
7:50 AM 50.0 °F 46.4 °F 87% 30.18 in - Calm Calm - N/A   Clear
8:20 AM 50.0 °F 46.4 °F 87% 30.18 in - Calm Calm - N/A   Clear
8:50 AM 51.8 °F 48.2 °F 88% 30.18 in - East 4.6 mph - N/A   Clear
9:00 AM 52 °F 48 °F 82% 30.20 in 6 mi East 4.6 mph - -  
9:20 AM 55.4 °F 48.2 °F 77% 30.18 in - ENE 3.5 mph - N/A   Clear
9:50 AM 60.8 °F 53.6 °F 77% 30.18 in - East 4.6 mph - N/A   Clear
10:20 AM 60.8 °F 53.6 °F 77% 30.18 in - East 4.6 mph - N/A   Clear
10:50 AM 68.0 °F 55.4 °F 64% 30.18 in - East 6.9 mph - N/A   Clear
11:20 AM 69.8 °F 55.4 °F 60% 30.18 in - East 6.9 mph - N/A   Clear
11:50 AM 71.6 °F 44.6 °F 38% 30.18 in - East 8.1 mph - N/A   Clear
12:20 PM 71.6 °F 44.6 °F 38% 30.18 in - East 8.1 mph - N/A   Clear
12:50 PM 75.2 °F 44.6 °F 34% 30.18 in - East 8.1 mph - N/A   Clear
1:20 PM 75.2 °F 44.6 °F 34% 30.18 in - East 8.1 mph - N/A   Clear
1:50 PM 75.2 °F 44.6 °F 34% 30.18 in - East 8.1 mph - N/A   Clear
2:20 PM 77.0 °F 42.8 °F 29% 30.15 in 6.2 mi ESE 8.1 mph - N/A   Partly Cloudy
2:50 PM 75.2 °F 50.0 °F 41% 30.12 in 6.2 mi SSW 11.5 mph - N/A   Partly Cloudy
3:00 PM 76 °F 50 °F 29% 30.14 in 6 mi SSW 11.5 mph - -   Scattered Clouds
3:20 PM 75.2 °F 50.0 °F 41% 30.12 in 6.2 mi SSW 10.4 mph - N/A   Partly Cloudy
3:50 PM 75.2 °F 59.0 °F 57% 30.12 in - SSW 6.9 mph - N/A   Clear
4:20 PM 75.2 °F 59.0 °F 57% 30.12 in - SW 8.1 mph - N/A   Clear
4:50 PM 75.2 °F 59.0 °F 57% 30.09 in - SW 8.1 mph - N/A   Clear
5:20 PM 73.4 °F 59.0 °F 61% 30.09 in - SW 8.1 mph - N/A   Clear
5:50 PM 73.4 °F 55.4 °F 53% 30.09 in - SW 5.8 mph - N/A   Clear
6:20 PM 71.6 °F 55.4 °F 57% 30.09 in - SW 4.6 mph - N/A   Clear
6:50 PM 69.8 °F 53.6 °F 56% 30.09 in - Variable 3.5 mph - N/A   Clear
7:20 PM 68.0 °F 53.6 °F 60% 30.09 in - Calm Calm - N/A   Clear
7:50 PM 66.2 °F 51.8 °F 60% 30.09 in - Calm Calm - N/A   Clear
8:20 PM 62.6 °F 53.6 °F 72% 30.12 in - Variable 3.5 mph - N/A   Clear
8:50 PM 59.0 °F 51.8 °F 77% 30.12 in - Calm Calm - N/A   Clear
9:00 PM 60 °F 52 °F 66% 30.12 in 6 mi Calm Calm - -  
9:20 PM 59.0 °F 51.8 °F 77% 30.12 in - Calm Calm - N/A   Clear
9:50 PM 59.0 °F 51.8 °F 77% 30.12 in - Calm Calm - N/A   Clear
10:20 PM 59.0 °F 51.8 °F 77% 30.12 in - Calm Calm - N/A   Clear
10:50 PM 59.0 °F 50.0 °F 72% 30.12 in - Calm Calm - N/A   Clear
11:20 PM 59.0 °F 50.0 °F 72% 30.12 in - Calm Calm - N/A   Clear
11:50 PM 57.2 °F 48.2 °F 72% 30.12 in - Calm Calm - N/A   Clear